Regional Weather Roundup
Issued by NWS

Home | Current Version | Previous Version | Graphics & Text | Print | Product List | Glossary On
Versions: 1 2 3 4 5 6 7 8 9 10 11 12 13 14 15 16 17 18 19 20 21 22 23 24 25 26 27
000
ASUS45 KTFX 201210
RWRMT
MONTANA REGIONAL WEATHER ROUNDUP
NATIONAL WEATHER SERVICE GREAT FALLS MT
500 AM MST MON FEB 20 2017

NOTE: "FAIR" INDICATES FEW OR NO CLOUDS BELOW 12000 FEET WITH NO
SIGNIFICANT WEATHER AND/OR OBSTRUCTIONS TO VISIBILITY.

MTZ001>007-043-201300-
WEST OF THE DIVIDE

CITY           SKY/WX    TMP DP  RH WIND       PRES   REMARKS
KALISPELL      CLOUDY    30  28  92 CALM      29.71S
MISSOULA       CLOUDY    31  30  96 E6        29.77R FOG     WCI  25
BUTTE          CLOUDY    25  19  78 SE3       29.75F
MULLAN PASS    LGT SNOW  24  24 100 VRB3      29.62F VSB 1
ANACONDA         N/A     34  25  69 SE13      29.75S WCI  25
DEER LODGE       N/A     32  27  80 S8        29.76F WCI  25
EUREKA           N/A     36  28  75 S10       29.69S WCI  28
HAMILTON         N/A     34  32  93 S5        29.76R
LIBBY            N/A     28  28 100 CALM      29.69F VSB 1/4
PLAINS           N/A     28  23  81 MISG      29.76S VSB 0
RONAN            N/A     27  24  88 CALM      29.77S
$$

MTZ008-052>055-201300-
SOUTHWEST MONTANA

CITY           SKY/WX    TMP DP  RH WIND       PRES   REMARKS
BOZEMAN        CLOUDY    32  23  69 E6        29.78F WCI  26
DILLON         CLOUDY    32  21  64 W6        29.76F WCI  26
W YELLOWSTONE  MIX PCPN  27  27 100 NW3       29.89R
ENNIS          MOCLDY    34  21  60 S23G30    29.85S WCI  22
THREE FORKS      N/A     37 -43   2 SW20      29.79F WCI  26
$$

MTZ009-010-012-014-046-048-049-054-201300-
EAST SLOPES AND CENTRAL MONTANA

CITY           SKY/WX    TMP DP  RH WIND       PRES   REMARKS
CUT BANK       PTCLDY    34  19  54 SW7       29.65S WCI  28
GREAT FALLS    CLEAR     30  23  75 S10       29.71S WCI  21
MALMSTROM AFB  PTCLDY    33  26  75 SW20      29.72R WCI  21
HELENA         CLEAR     27  22  81 W6        29.75S WCI  20
AUGUSTA          N/A     26  20  79 SW8       29.68F WCI  18
BOWMANS CRNR     N/A     28  23  84 S7        29.68F WCI  20
CHOTEAU          N/A     34  19  55 SW13      29.68F WCI  25
CONRAD           N/A     30  24  78 S2        29.73R
POWER          MOCLDY    31  24  78 SW9       29.68S WCI  22
RAYNESFORD       N/A     25  20  82 CALM      29.73R
ULM              N/A     26  21  82 MISG      29.72S
$$

MTZ011-013-016-021-045-047-050-051-201300-
NORTH CENTRAL MONTANA

CITY           SKY/WX    TMP DP  RH WIND       PRES   REMARKS
HAVRE          CLEAR     34  27  75 SW12      29.71R WCI  25
LEWISTOWN      CLEAR     31  22  69 SW10      29.74R WCI  22
N BAR RANCH      N/A     37  14  38 W12       29.76R WCI  30
CHINOOK          N/A     32  28  86 NW3       29.71R
DENTON           N/A     31  23  73 SW14      29.70R WCI  21
FORT BENTON      N/A     34  25  69 MISG      29.74R
GEYSER           N/A     28  21  75 SW8       29.72R WCI  20
GRASS RANGE      N/A     33  23  67 NW7       29.71R WCI  27
JUDITH GAP       N/A     31  20  62 SW21      29.74R WCI  19
ROY              N/A     32  24  72 MISG      29.71R
STANFORD         N/A     30  21  69 W9        29.73R WCI  21
WINIFRED         N/A     33  26  75 SW10      29.72R WCI  25
$$

MTZ017>020-022>027-061-062-201300-
NORTHEAST MONTANA

CITY           SKY/WX    TMP DP  RH WIND       PRES   REMARKS
GLASGOW        CLOUDY    29  28  96 S8        29.71R FOG     WCI  21
JORDAN           N/A     35  30  82 W8        29.73R WCI  29
SIDNEY         CLOUDY    32  31  96 S9        29.71R WCI  24
WOLF POINT     MOCLDY    29  27  92 W6        29.71S FOG     WCI  23
PLENTYWOOD       N/A     30  30 100 S3        29.67R VSB 0
POPLAR           N/A     30  28  93 CALM      29.71R
$$

MTZ028>42-056>058-201300-
SOUTHCENTRAL AND SOUTHEAST MONTANA

CITY           SKY/WX    TMP DP  RH WIND       PRES   REMARKS
BAKER          CLOUDY    36  32  85 W8        29.74R WCI  30
BILLINGS       CLEAR     38  25  59 W17       29.79R WCI  28
LIVINGSTON     CLOUDY    39  22  50 SW21      29.76S WCI  29
MILES CITY     PTCLDY    39  31  72 W9        29.75R
BIG TIMBER     MOCLDY    36  21  55 W13       29.80S WCI  27
EKALAKA          N/A     39  33  79 CALM      29.76R
FORSYTH          N/A     41  30  65 W5        29.77R
HARLOWTON        N/A     31  22  68 W14       29.76R WCI  21
LAUREL           N/A     36  19  50 SW10      29.79R WCI  28
ROUNDUP          N/A     32  21  64 E1        29.71R
$$

REGIONAL REPORTS...DAKOTAS

CITY           SKY/WX    TMP DP  RH WIND       PRES   REMARKS
WILLISTON      CLOUDY    33  32  96 SW3       29.68R
MINOT          CLOUDY    35  33  92 NW8       29.63R WCI  29
DICKINSON      CLOUDY    36  33  89 W15       29.66R WCI  27
BEACH            N/A    N/A N/A N/A MISG        N/A
CROSBY           N/A     32  32 100 W8        29.67R WCI  25
TIOGA          FOG       32  32 100 W9        29.66R VSB 3/4 WCI  24
WATFORD CITY     N/A     32  32 100 SW9       29.69R WCI  24
BISMARCK       CLOUDY    39  35  86 NW6       29.65R
GRAND FORKS    FOG       38  35  89 SW3       29.58R VSB 1
FARGO          LGT RAIN  51  48  89 S17G26    29.61R
BUFFALO SD       N/A     45  37  73 W20       29.67R
RAPID CITY     LGT RAIN  45  37  73 NW26G33   29.73R
$$

REGIONAL REPORTS...WYOMING/IDAHO/WASHINGTON

CITY           SKY/WX    TMP DP  RH WIND       PRES   REMARKS
GILLETTE       CLEAR     35  33  92 W9        29.82R WCI  28
SHERIDAN       CLEAR     35  22  58 SW13      29.81R WCI  26
BUFFALO WY     CLEAR     37  28  70 S5        29.83R
CODY           CLEAR     37  17  44 W6        29.85S
YELLOWSTONE LA   N/A     23  22  96 VRB3      29.91R
IDAHO FALLS    CLOUDY    31  30  96 CALM      29.90S
SALMON         CLOUDY    30  28  93 CALM      29.77F
BOISE          MOCLDY    46  35  65 SE18      29.75S
SPOKANE        CLOUDY    35  31  85 SE8       29.64F WCI  29
$$

REGIONAL REPORTS...ALBERTA

CITY           SKY/WX    TMP DP  RH WIND       PRES   REMARKS
EDMONTON       MOCLDY    30  27  86 W3        29.58R
CALGARY        CLEAR     25  23  93 S3        29.55R FOG
LETHBRIDGE     PTCLDY    30  23  74 SW13      29.63R WCI  20
MEDICINE HAT   CLEAR     28  25  86 SW6       29.63R WCI  22
CARDSTON         N/A     34  18  51 SW8         N/A  WCI  27
MILK RIVER       N/A     30  23  74 W9          N/A  WCI  22
$$

REGIONAL REPORTS...SASKATCHEWAN

CITY           SKY/WX    TMP DP  RH WIND       PRES   REMARKS
SWIFT CURRENT  CLEAR     30  27  86 SW6       29.61R WCI  24
REGINA         FOG       30  30 100 S3        29.62R VSB 1/4
SASKATOON      FOG       32  32 100 SW9       29.60R VSB 1/2 WCI  24
CYPRESS HILLS    N/A     30  21  69 W7          N/A  WCI  23
VAL MARIE        N/A     28  27  93 S5          N/A
ROCKGLEN         N/A     28  28 100 W8          N/A  WCI  20
ASSINIBOIA       N/A     34  32  93 W7          N/A  WCI  28
$$




USA.gov is the U.S. government's official web portal to all federal, state and local government web resources and services.